Tracking 23611 objects as of 17-Sep-2021
HD Live streaming from Space Station
objects crossing your sky now
Track INSPIRATION-4

DELTA 1 DEB

Track DELTA 1 DEB now!
10-day predictions


NORAD ID: 12177
Int'l Code: 1978-026S
Perigee: 812.9 km
Apogee: 1,040.2 km
Inclination: 98.8 °
Period: 103.4 minutes
Semi major axis: 7297 km
RCS: 0.0985 m2 (small)
Launch date: March 5, 1978
Source: United States (US)
Launch site: AIR FORCE WESTERN TEST RANGE (AFWTR)

Note: This is SATELLITE DEBRIS
aabbcc
Your satellite tracking list
Your tracking list is empty




NASA's NSSDC Master Catalog

Two Line Element Set (TLE):
1 12177U 78026S   21260.37024517  .00000094  00000-0  95837-4 0  9990
2 12177  98.7775  48.7026 0155715 241.5790 146.7030 13.92632198 58369
Source of the keplerian elements: AFSPC